This is the latest recevied weather packets stored in our database for station/object KD8BMB. If no packets are shown the sender has not sent any weather packets the latest 1 day(s).
| Time | Temp. | Humidity | Pressure | Rain* | Wind** | Luminosity | Snow |
|---|---|---|---|---|---|---|---|
| 1778063242 | 2.78° C | 89% | 1010.2 hPa | 0 mm | - | 3 W/m² | - |
| 1778062940 | 2.78° C | 88% | 1010.2 hPa | 0 mm | - | 0 W/m² | - |
| 1778062333 | 3.33° C | 86% | 1010 hPa | 0 mm | - | 0 W/m² | - |
| 1778061729 | 3.33° C | 85% | 1009.6 hPa | 0 mm | - | 0 W/m² | - |
| 1778061124 | 3.89° C | 84% | 1009.5 hPa | 0 mm | - | 0 W/m² | - |
| 1778060821 | 3.89° C | 83% | 1009.3 hPa | 0 mm | - | 0 W/m² | - |
| 1778060519 | 3.89° C | 83% | 1009.5 hPa | 0 mm | - | 0 W/m² | - |
| 1778059914 | 4.44° C | 83% | 1009.3 hPa | 0 mm | - | 0 W/m² | - |
| 1778059309 | 4.44° C | 83% | 1009.6 hPa | 0 mm | - | 0 W/m² | - |
| 1778059007 | 4.44° C | 82% | 1009.5 hPa | 0 mm | - | 0 W/m² | - |
| 1778058704 | 4.44° C | 82% | 1009.4 hPa | 0 mm | - | 0 W/m² | - |
| 1778058402 | 4.44° C | 83% | 1009.3 hPa | 0 mm | - | 0 W/m² | - |
| 1778058098 | 4.44° C | 83% | 1009.4 hPa | 0 mm | - | 0 W/m² | - |
| 1778057795 | 5° C | 84% | 1009.5 hPa | 0 mm | - | 0 W/m² | - |
| 1778057491 | 5° C | 86% | 1009.5 hPa | 0 mm | - | 0 W/m² | - |
| 1778057188 | 5° C | 86% | 1009.5 hPa | 0 mm | - | 0 W/m² | - |
| 1778055370 | 5.56° C | 93% | 1009.5 hPa | 0 mm | - | 0 W/m² | - |
| 1778054765 | 5.56° C | 93% | 1009.6 hPa | 0 mm | - | 0 W/m² | - |
| 1778054461 | 5.56° C | 93% | 1009.3 hPa | 0 mm | - | 0 W/m² | - |
| 1778054159 | 5.56° C | 93% | 1009.2 hPa | 0 mm | - | 0 W/m² | - |
| 1778053250 | 6.11° C | 92% | 1008.9 hPa | 0 mm | - | 0 W/m² | - |
| 1778052342 | 6.67° C | 91% | 1009.2 hPa | 0 mm | - | 0 W/m² | - |
| 1778051737 | 6.67° C | 90% | 1009.3 hPa | 0 mm | - | 0 W/m² | - |
| 1778049615 | 7.22° C | 88% | 1008.7 hPa | 0 mm | - | 0 W/m² | - |
| 1778049011 | 7.22° C | 87% | 1008.9 hPa | 0 mm | - | 0 W/m² | - |
* Rain latest hour (hover to see other rain measurements)
** Current wind speed in m/s (hover to see current wind gust speed)